EW1134 Weather Reports


Display with metric or nautical units.
time (UTC)temp
F
wind
direction
speed
MPH
gust
MPH
rain 1hr
in
rain 24hr
in
rain mn
in
humidity
%
barometer
mb
20260504050503 48 276 0.0 4.0 0.00 0.00 0.00 73 1019.5
20260504050003 47 263 2.0 6.0 0.00 0.00 0.00 73 1019.3
20260504045503 46 266 2.0 6.0 0.00 0.00 0.00 74 1019.3
20260504045003 46 254 1.0 4.0 0.00 0.00 0.00 75 1019.2
20260504044504 45 260 2.0 6.0 0.00 0.00 0.00 75 1019.2
20260504044003 45 274 2.0 6.0 0.00 0.00 0.00 76 1019.2
20260504043004 49 289 1.0 5.0 0.00 0.00 0.00 77 1019.2
20260504042503 49 267 1.0 5.0 0.00 0.00 0.00 77 1019.1
20260504041504 49 282 1.0 4.0 0.00 0.00 0.00 78 1019.1
20260504041003 49 278 1.0 4.0 0.00 0.00 0.00 78 1019.2
20260504040503 49 272 1.0 4.0 0.00 0.00 0.00 78 1019.0
20260504040004 49 272 2.0 6.0 0.00 0.00 0.00 78 1019.2
20260504035503 49 282 3.0 7.0 0.00 0.00 0.00 78 1018.9
20260504035002 49 291 3.0 7.0 0.00 0.00 0.00 78 1019.1
20260504034503 49 283 2.0 7.0 0.00 0.00 0.00 78 1019.1
20260504034003 49 270 3.0 8.0 0.00 0.00 0.00 78 1018.9
20260504032502 49 248 1.0 6.0 0.00 0.00 0.00 77 1019.0
20260504031504 49 244 1.0 5.0 0.00 0.00 0.00 77 1018.9
20260504031003 49 267 1.0 7.0 0.00 0.00 0.00 77 1018.7
20260504030503 49 270 1.0 7.0 0.00 0.00 0.00 77 1018.8
20260504030003 49 262 1.0 4.0 0.00 0.00 0.00 77 1018.7
20260504025503 49 266 1.0 4.0 0.00 0.00 0.00 76 1018.8
20260504025003 49 297 1.0 3.0 0.00 0.00 0.00 76 1018.7
20260504024503 49 298 1.0 4.0 0.00 0.00 0.00 76 1018.7
20260504023503 49 250 1.0 4.0 0.00 0.00 0.00 76 1018.8
20260504023004 49 239 1.0 4.0 0.00 0.00 0.00 75 1019.1
20260504022503 49 247 1.0 4.0 0.00 0.00 0.00 75 1018.8
20260504022002 49 241 1.0 4.0 0.00 0.00 0.00 75 1018.8
20260504021504 49 227 2.0 4.0 0.00 0.00 0.00 75 1018.8
20260504021003 49 244 3.0 6.0 0.00 0.00 0.00 75 1018.8
20260504020003 49 248 2.0 7.0 0.00 0.00 0.00 74 1018.9
20260504015502 49 231 2.0 5.0 0.00 0.00 0.00 74 1018.8
20260504013502 49 245 2.0 5.0 0.00 0.00 0.00 75 1018.9
20260504012502 49 250 2.0 7.0 0.00 0.00 0.00 75 1019.0
20260504011503 49 237 1.0 4.0 0.00 0.00 0.00 74 1018.9
20260504011003 49 244 1.0 4.0 0.00 0.00 0.00 74 1019.1
20260504005502 49 243 1.0 6.0 0.00 0.00 0.00 74 1018.9
20260504005003 49 249 1.0 4.0 0.00 0.00 0.00 74 1018.7
20260504004503 49 249 1.0 4.0 0.00 0.00 0.00 74 1018.7
20260504003502 49 237 1.0 6.0 0.00 0.00 0.00 73 1018.8
20260504002003 49 238 2.0 4.0 0.00 0.00 0.00 73 1018.6
20260504001003 49 235 2.0 5.0 0.00 0.00 0.00 73 1018.9
20260504000503 49 253 2.0 5.0 0.00 0.00 0.00 73 1018.8
20260504000004 49 259 2.0 5.0 0.00 0.00 0.00 73 1018.8
20260503235503 49 260 2.0 6.0 0.00 0.00 0.00 73 1018.9
20260503235003 49 265 2.0 6.0 0.00 0.00 0.00 73 1018.7
20260503234002 49 251 1.0 6.0 0.00 0.00 0.00 73 1018.8
20260503233503 49 263 2.0 5.0 0.00 0.00 0.00 73 1018.7
20260503233003 49 270 2.0 4.0 0.00 0.00 0.00 73 1018.7
20260503232502 49 263 3.0 6.0 0.00 0.00 0.00 73 1018.8
20260503232003 49 256 3.0 6.0 0.00 0.00 0.00 73 1019.0
20260503231503 49 242 2.0 6.0 0.00 0.00 0.00 73 1018.9
20260503231003 49 235 2.0 7.0 0.00 0.00 0.00 73 1018.8
20260503230502 49 239 2.0 7.0 0.00 0.00 0.00 74 1018.8
20260503230003 49 248 1.0 5.0 0.00 0.00 0.00 74 1018.8
20260503225503 49 268 2.0 4.0 0.00 0.00 0.00 74 1018.9
20260503225003 49 271 2.0 5.0 0.00 0.00 0.00 74 1019.0
20260503224503 49 279 2.0 5.0 0.00 0.00 0.00 74 1019.0
20260503224002 49 258 2.0 5.0 0.00 0.00 0.00 73 1019.0
20260503223503 49 236 1.0 5.0 0.00 0.00 0.00 73 1018.9
20260503223004 49 238 1.0 5.0 0.00 0.00 0.00 73 1018.9
20260503222003 49 212 0.0 2.0 0.00 0.00 0.00 72 1019.1
20260503221504 49 169 0.0 2.0 0.00 0.00 0.00 72 1018.9
20260503221003 49 171 0.0 1.0 0.00 0.00 0.00 71 1019.0
20260503220502 49 141 0.0 2.0 0.00 0.00 0.00 71 1019.0
20260503220003 49 198 0.0 3.0 0.00 0.00 0.00 71 1019.0
20260503215503 49 248 0.0 3.0 0.00 0.00 0.00 71 1019.0
20260503215002 49 269 0.0 2.0 0.00 0.00 0.00 70 1019.1
20260503214503 49 276 0.0 4.0 0.00 0.00 0.00 70 1018.8
20260503213502 49 221 1.0 5.0 0.00 0.00 0.00 71 1019.0
20260503213004 49 234 0.0 5.0 0.00 0.00 0.00 71 1019.0
20260503212503 49 231 1.0 4.0 0.00 0.00 0.00 71 1019.1
20260503211503 49 230 1.0 4.0 0.00 0.00 0.00 71 1019.2
20260503211003 49 241 1.0 5.0 0.00 0.00 0.00 71 1019.2
20260503210503 49 256 2.0 5.0 0.00 0.00 0.00 71 1019.1
20260503210005 49 246 2.0 5.0 0.00 0.00 0.00 71 1019.0
20260503205502 49 250 2.0 7.0 0.00 0.00 0.58 71 1018.9
20260503205003 49 263 2.0 7.0 0.00 0.00 0.58 71 1019.2
20260503204504 49 257 2.0 5.0 0.00 0.00 0.58 71 1019.0
20260503204003 49 263 2.0 6.0 0.00 0.00 0.58 71 1019.2
20260503203503 49 266 2.0 6.0 0.00 0.00 0.58 71 1019.1
20260503202502 49 256 2.0 5.0 0.00 0.00 0.58 71 1019.2
20260503202003 49 236 2.0 5.0 0.00 0.00 0.58 70 1019.0
20260503201503 49 222 1.0 4.0 0.00 0.00 0.58 70 1019.1
20260503200503 49 234 2.0 5.0 0.00 0.00 0.58 70 1019.1
20260503200003 49 229 3.0 5.0 0.00 0.00 0.58 70 1019.2
20260503195502 49 225 3.0 6.0 0.00 0.00 0.58 69 1019.1
20260503195003 49 227 3.0 6.0 0.00 0.00 0.58 68 1019.0
20260503194503 49 232 2.0 4.0 0.00 0.00 0.58 68 1019.1
20260503194002 49 234 3.0 7.0 0.00 0.00 0.58 66 1019.1
20260503193003 48 225 4.0 7.0 0.00 0.00 0.58 64 1019.0
20260503191504 50 225 3.0 6.0 0.00 0.00 0.58 61 1019.1
20260503191003 50 242 1.0 4.0 0.00 0.00 0.58 60 1018.9
20260503190502 50 266 1.0 4.0 0.00 0.00 0.58 59 1019.1
20260503190004 51 266 1.0 5.0 0.00 0.00 0.58 59 1019.2
20260503185503 51 263 2.0 5.0 0.00 0.00 0.58 58 1019.1
20260503185003 51 257 2.0 5.0 0.00 0.00 0.58 58 1019.3
20260503184503 51 265 2.0 5.0 0.00 0.00 0.58 57 1019.0
20260503183502 51 266 1.0 5.0 0.00 0.00 0.58 56 1018.8
20260503183003 51 260 1.0 4.0 0.00 0.00 0.58 55 1018.8
20260503182503 51 235 0.0 3.0 0.00 0.00 0.58 55 1018.7
20260503182002 52 240 1.0 5.0 0.00 0.00 0.58 54 1018.6
20260503181504 52 255 1.0 5.0 0.00 0.00 0.58 54 1018.6
20260503181003 52 275 1.0 4.0 0.00 0.00 0.58 54 1018.6
20260503180503 52 281 1.0 4.0 0.00 0.00 0.58 53 1018.7
20260503180003 52 289 1.0 4.0 0.00 0.00 0.58 53 1018.5
20260503175503 52 297 1.0 5.0 0.00 0.00 0.58 52 1018.6
20260503175003 52 299 1.0 5.0 0.00 0.00 0.58 52 1018.6
20260503173003 54 298 2.0 4.0 0.00 0.00 0.00 50 1018.1
20260503171503 55 334 6.0 13.0 0.00 0.00 0.58 47 1018.0
20260503151002 56 297 8.0 19.0 0.00 0.58 0.58 52 1013.8
20260503131003 55 309 9.0 16.0 0.00 0.58 0.58 57 1014.3
20260503130502 54 324 9.0 19.0 0.00 0.58 0.58 59 1014.3